LIRM

Grazzanise Air Base

Airport
ICAO code
LIRM
Summary
ICAO Region
EUR
ICAO Territory
Location

Grazzanise, Campania

Serving
Grazzanise
Elevation
30 ft
Coordinates
41° 3' 29" N , 14° 4' 58" E
KCC
Metar
LIRM 151855Z 12002KT 8000 FEW020 17/17 Q1015

Grazzanise Air Base is an Italian Air Force airbase 1.2 nm south of Grazzanise, in the Province of Caserta in the region of Campania, Italy.

Climatology

Warm mediterranean climate (Köppen climate classification Csa)

Runways

Designator Length Width Surface Rops
6/24 2991 30 ASP No/No

Airport map

Aerial View

SKYbrary Partners:

Safety knowledge contributed by: